Regional Weather Roundup
Issued by NWS

Home | Current Version | Previous Version | Text Only | Print | Product List | Glossary On
Versions: 1 2 3 4 5 6 7 8 9 10 11 12 13 14 15 16 17 18 19 20 21 22 23 24 25 26 27 28 29 30 31 32 33 34 35 36 37 38 39 40 41 42 43 44 45 46 47 48 49 50
000
ASUS43 KLOT 110811
RWRIL

ILLINOIS REGIONAL WEATHER ROUNDUP
NATIONAL WEATHER SERVICE CHICAGO/ROMEOVILLE IL
200 AM CST SUN DEC 11 2016

NOTE: "FAIR" INDICATES FEW OR NO CLOUDS BELOW 12,000 FEET WITH NO
SIGNIFICANT WEATHER AND/OR OBSTRUCTIONS TO VISIBILITY.

* THESE STATIONS ARE NOT UNDER NWS QUALITY CONTROL. THEY ALSO MAY NOT
  REPORT WEATHER SUCH AS PRECIPITATION OR FOG.

ILZ001-002-007-009-015-016-024-110900-
NORTHWEST ILLINOIS

CITY           SKY/WX    TMP DP  RH WIND       PRES   REMARKS
MOLINE         CLOUDY    27  21  78 E8        30.08F WCI  19
STERLING*      MIX PCPN  26  23  88 SE12      30.14F WCI  16
SAVANNA*       LGT SNOW  25  22  88 SE10      30.12F WCI  15
$$

ILZ003-004-008-010-011-017-018-110900-
NORTH CENTRAL ILLINOIS

CITY           SKY/WX    TMP DP  RH WIND       PRES   REMARKS
ROCKFORD       LGT SNOW  24  21  88 SE10      30.19F FOG     WCI  14
FREEPORT*      LGT SNOW  23  21  93 SE12      30.16F WCI  12
ROCHELLE*      LGT SNOW  24  22  91 SE15      30.17F WCI  12
DE KALB*       LGT SNOW  23  22  93 SE14      30.17F WCI  11
$$

ILZ005-006-012>014-019>023-110900-
NORTHEAST ILLINOIS

CITY           SKY/WX    TMP DP  RH WIND       PRES   REMARKS
CHICAGO-OHARE  LGT SNOW  24  21  88 SE12      30.20F FOG     WCI  13
CHICAGO-MIDWAY LGT SNOW  25  20  81 SE13      30.22F FOG     WCI  14
AURORA         LGT SNOW  25  21  85 SE13      30.19F FOG     WCI  14
LANSING*       CLOUDY    24  23  96 SE7       30.24F WCI  16
JOLIET*        LGT SNOW  26  24  89 SE8       30.21F WCI  18
WAUKEGAN       LGT SNOW  24  22  91 SE8       30.21F FOG     WCI  15
DUPAGE AIRPORT LGT SNOW  24  20  84 SE10      30.18F FOG     WCI  14
KANKAKEE*      LGT SNOW  26  23  89 SE12      30.21F WCI  15
WHEELING       CLOUDY    24  20  84 SE9       30.24F WCI  14
MORRIS*        LGT SNOW  26  22  87 SE12      30.18F WCI  15
ROMEOVILLE*    LGT SNOW  24  24  99 SE15      30.20F WCI  12
NORTHERLY ISL    N/A     25  23  92 SE12        N/A  WCI  14
$$

LMZ740>746-110900-
SOUTHERN LAKE MICHIGAN

STATION/POSITION SKY/WX   TEMP    WIND        PRES    VSBY  WAVE
                          AIR SEA DIR/SP/G                  HT/PER
                          (F)     (DEG/KT/KT) (MB)    (MI)  (FT/S)
BURNHAM HARBOR             26     170/ 10/ 13   N/A
CALUMET HARBOR             24     130/  8/ 12 1023.3F
BURNS HARBOR               24     160/ 10/ 13 1025.1F
$$

ILZ025>027-034>036-040-047-049-050-058-095>099-110900-
WEST-CENTRAL ILLINOIS

CITY           SKY/WX    TMP DP  RH WIND       PRES   REMARKS
QUINCY         CLOUDY    34  16  47 S12       30.03F WCI  25
GALESBURG*     CLOUDY    29  23  78 SE9       30.06F WCI  20
MACOMB*        CLOUDY    32  22  67 S13       30.08F WCI  22
JACKSONVILLE*  CLOUDY    33  20  58 S10       30.10F WCI  25
PITTSFIELD*    CLOUDY    35  19  51 S15       30.08F WCI  25
$$

ILZ028>032-037-038-041>044-048-051>054-059>061-110900-
CENTRAL ILLINOIS

CITY           SKY/WX    TMP DP  RH WIND       PRES   REMARKS
PONTIAC        CLOUDY    28  26  93 SE15      30.18S WCI  16
BLOOMINGTON    CLOUDY    27  22  81 SE14      30.15F WCI  16
DECATUR        CLOUDY    32  19  58 S15G25    30.17F WCI  22
PEORIA         CLOUDY    30  22  72 S12       30.12F WCI  20
LACON*         CLOUDY    27  23  84 SE8       30.13F WCI  19
LINCOLN*       CLOUDY    32  22  66 S9        30.15R WCI  24
SPRINGFIELD    CLOUDY    34  20  56 S14       30.13F WCI  25
TAYLORVILLE    CLOUDY    33  19  57 S16       30.14F WCI  22
$$

ILZ033-039-045-046-055>057-062-063-110900-
EAST-CENTRAL ILLINOIS

CITY           SKY/WX    TMP DP  RH WIND       PRES   REMARKS
CHAMPAIGN      CLOUDY    29  20  69 SE15      30.18F WCI  18
RANTOUL*       CLOUDY    29  24  81 SE12      30.19F WCI  19
MATTOON        CLOUDY    30  18  60 S12       30.19F WCI  20
PARIS*         CLOUDY    29  22  74 SE14      30.24S WCI  18
$$

ILZ079-100>102-110900-
SOUTHWEST ILLINOIS

CITY           SKY/WX    TMP DP  RH WIND       PRES   REMARKS
ALTON          CLOUDY    36  19  51 SE13      30.13F WCI  27
BELLEVILLE     CLOUDY    38  19  46 S13       30.14F WCI  30
CAHOKIA*       CLOUDY    37  19  48 SE8       30.14F WCI  31
SPARTA*        CLOUDY    38  18  43 S12G22    30.18F WCI  30
$$

ILZ064>066-069>071-074>076-080>082-084>086-088>090-092>094-110900-
SOUTH-CENTRAL ILLINOIS

CITY           SKY/WX    TMP DP  RH WIND       PRES   REMARKS
CARBONDALE     CLOUDY    37  18  46 S13       30.21F WCI  29
CAIRO*         CLOUDY    38  21  50 SE9       30.24F WCI  31
EFFINGHAM*     CLOUDY    32  23  68 SE10      30.23S WCI  24
MARION         CLOUDY    39  18  41 S15       30.23F WCI  31
CENTRALIA*     CLOUDY    36  22  56 S7        30.20S WCI  30
SALEM*         CLOUDY    36  19  51 SE6       30.20S WCI  31
METROPOLIS*    CLOUDY    38  19  46 CALM      30.27S
$$

ILZ067-068-072-073-078-083-087-091-110900-
SOUTHEAST ILLINOIS

CITY           SKY/WX    TMP DP  RH WIND       PRES   REMARKS
LAWRENCEVILLE  CLOUDY    32  21  64 SE8       30.27F WCI  25
FLORA*         CLOUDY    34  22  60 SE7       30.24S WCI  28
FAIRFIELD*     CLOUDY    34  21  60 SE5       30.22F WCI  30
HARRISBURG*    CLOUDY    35  24  62 S9        30.24F WCI  28
ROBINSON*      CLOUDY    30  21  67 SE5       30.28R WCI  25
CARMI*         CLOUDY    33  24  69 SE10      30.24F WCI  25
$$

ABBREVIATIONS USED IN REMARKS
   TC - TEMPERATURE IN CELSIUS
  WCI - WIND CHILL INDEX
   HX - HEAT INDEX
  VSB - VISIBILITY
$$





USA.gov is the U.S. government's official web portal to all federal, state and local government web resources and services.